Date,TemperatureHighF,TemperatureAvgF,TemperatureLowF,DewpointHighF,DewpointAvgF,DewpointLowF,HumidityHigh,HumidityAvg,HumidityLow,PressureMaxIn,PressureMinIn,WindSpeedMaxMPH,WindSpeedAvgMPH,GustSpeedMaxMPH,PrecipitationSumIn
2013-5-1,75.2,64.7,52.1,58.9,54.7,50.1,95,72,54,30.25,30.11,9,4,17,0.00
2013-5-2,75.8,66.0,57.0,58.9,54.2,50.2,81,66,53,30.23,30.14,10,6,16,0.00
2013-5-3,73.2,63.3,55.2,55.4,51.6,47.9,86,67,44,30.17,30.02,14,7,26,0.00
2013-5-4,62.5,57.7,52.7,51.7,47.5,33.6,95,70,42,30.04,29.94,14,7,25,0.53
2013-5-5,59.0,53.4,50.8,54.9,51.1,48.6,95,92,85,29.97,29.83,12,5,15,0.45
2013-5-6,65.3,54.6,48.5,55.8,50.0,47.3,97,85,63,29.96,29.83,10,3,17,0.10
2013-5-7,68.0,56.2,43.3,55.2,50.0,41.8,97,81,60,30.02,29.93,7,1,11,0.06
2013-5-8,71.8,60.8,54.5,61.6,56.9,53.0,97,88,68,30.10,29.97,10,2,14,0.08
2013-5-9,80.8,64.8,49.7,64.3,56.8,48.6,98,78,47,30.16,30.05,8,2,17,0.01
2013-5-10,77.1,64.5,51.8,64.9,58.4,50.1,97,82,63,30.11,29.96,11,2,17,0.00
2013-5-11,73.8,64.6,54.0,64.5,58.7,49.3,95,82,64,30.02,29.88,13,4,17,0.00
2013-5-12,63.9,55.2,42.0,51.5,41.0,30.5,94,63,32,30.18,30.01,11,4,16,0.00
2013-5-13,65.0,50.3,32.3,42.4,35.1,30.1,95,61,31,30.30,30.18,12,3,18,0.00
2013-5-14,77.2,58.7,35.0,56.1,45.6,32.8,95,65,40,30.31,30.07,11,3,21,0.00
2013-5-15,85.4,73.1,57.6,62.1,57.9,52.8,88,61,43,30.16,29.99,11,4,18,0.00
2013-5-16,81.7,67.3,52.6,62.9,57.9,50.4,96,74,46,30.08,29.99,7,2,11,0.00
2013-5-17,83.6,69.0,54.6,66.1,60.4,52.7,98,76,49,30.12,30.03,5,1,9,0.00
2013-5-18,73.6,66.4,62.0,67.9,64.0,58.7,98,92,78,30.10,30.03,4,0,7,0.34
2013-5-19,82.0,69.3,62.6,71.9,66.0,60.8,99,90,71,30.09,30.00,10,1,15,0.03
2013-5-20,85.3,71.1,60.3,71.1,64.8,58.9,99,83,57,30.15,30.00,5,1,9,0.00
2013-5-21,90.5,72.1,59.0,72.7,65.1,57.6,98,81,49,30.07,29.90,15,2,27,0.81
2013-5-22,86.3,68.7,57.4,72.0,63.6,56.6,99,85,55,29.99,29.85,16,2,31,0.15
2013-5-23,81.3,69.1,61.3,66.9,61.7,55.4,98,79,52,30.02,29.89,15,4,26,0.15
2013-5-24,68.5,61.3,48.4,55.7,48.6,41.0,87,65,39,30.32,30.02,14,5,20,0.00
2013-5-25,73.7,57.6,39.7,54.4,45.0,37.8,96,68,34,30.42,30.22,6,1,11,0.00
2013-5-26,76.7,63.3,52.4,58.6,50.9,45.0,90,67,38,30.34,30.22,5,1,10,0.00
2013-5-27,84.9,68.1,49.6,62.8,56.5,47.7,97,70,45,30.27,30.11,9,2,17,0.00
2013-5-28,87.2,71.9,55.2,66.2,61.0,53.5,97,72,44,30.22,30.09,9,2,18,0.00
2013-5-29,88.3,73.3,55.0,69.7,62.2,53.0,97,71,46,30.23,30.10,5,0,10,0.00
2013-5-30,88.8,73.9,56.1,71.0,62.3,54.3,98,71,41,30.26,30.10,5,1,10,0.00
2013-5-31,89.7,74.5,57.3,68.7,62.9,55.1,96,70,43,30.19,30.05,8,1,13,0.00